Terug naar catalogus

STARLINK-36358

ActiefCommunicatieSSO
NORAD 67598·PAYLOAD·🇺🇸 United States

Gelanceerd Jan 29, 2026 vanaf Vandenberg Space Force Base

Loading…

Volgende Passages (komende 24 uur)

TLE

VersSource: CelesTrak SupGP

Epoch: Sep 15, 2026, 03:13 UTC

1 67598C 26018K   26258.13451389 -.00020088  00000+0 -62351-3 0  2586
2 67598  97.2846 321.6356 0001006  92.4862 350.7948 15.33453669    19

Volg STARLINK-36358 in realtime met AllMySat

Download on the App Store